Date String (YYYY-MM-DD hh:mm:ss) UTC,Instrument flags,Ambient pressure (hPa),Sample flow (lpm),Bypass flow (lpm),Sample temperature (°C),Ambient temperature (°C),ASC tube jacket temperature (°C),LED temperature (°C),Box temperature (°C),Sample RH (%),Span deviation,Mass concentration (μg/m³),Mass concentration (μg/m³),Mass concentration (μg/m³)
DateTimeUTC,F1_M11,P_M11,Q1_M11,Q2_M11,T1_M11,T2_M11,T3_M11,T4_M11,T5_M11,U1_M11,ZSPAN_M11,X0_M11,X2_M11,X1_M11
2023-04-09 07:00:00,,0832.8,5.00,0.00,25.4,23.5,00.0,33.8,26.9,14.2,0000.0,0009.16,0003.19,0001.78
2023-04-09 07:01:00,,0832.8,5.00,0.00,25.4,23.5,00.0,33.8,26.9,14.2,0000.0,0008.82,0003.20,0001.78
2023-04-09 07:02:00,,0832.7,4.98,0.00,25.3,23.5,00.0,33.8,26.8,14.3,0000.0,0008.84,0003.18,0001.77
2023-04-09 07:03:00,,0832.8,4.99,0.00,25.3,23.5,00.0,33.7,26.8,14.2,0000.0,0008.85,0003.15,0001.75
2023-04-09 07:04:00,,0832.8,5.00,0.00,25.3,23.5,00.0,33.7,26.8,14.2,0000.0,0008.75,0003.13,0001.73
2023-04-09 07:05:00,,0832.7,5.01,0.00,25.3,23.5,00.0,33.7,26.8,14.1,0000.0,0008.85,0003.14,0001.73
2023-04-09 07:06:00,,0832.7,5.01,0.00,25.3,23.5,00.0,33.7,26.8,14.1,0000.0,0008.72,0003.13,0001.72
2023-04-09 07:07:00,,0832.7,5.00,0.00,25.3,23.5,00.0,33.7,26.8,14.1,0000.0,0008.54,0003.09,0001.71
2023-04-09 07:08:00,,0832.7,5.00,0.00,25.3,23.5,00.0,33.7,26.8,14.0,0000.0,0008.13,0003.04,0001.71
2023-04-09 07:09:00,,0832.8,5.00,0.00,25.3,23.5,00.0,33.7,26.8,14.0,0000.0,0008.20,0003.00,0001.71
2023-04-09 07:10:00,,0832.8,5.00,0.00,25.3,23.5,00.0,33.7,26.8,14.1,0000.0,0008.64,0003.01,0001.71
2023-04-09 07:11:00,,0832.8,5.00,0.00,25.3,23.5,00.0,33.7,26.8,14.1,0000.0,0008.89,0003.08,0001.72
2023-04-09 07:12:00,,0832.8,4.99,0.00,25.3,23.5,00.0,33.6,26.8,14.0,0000.0,0009.30,0003.02,0001.72
2023-04-09 07:13:00,,0832.8,5.00,0.00,25.3,23.5,00.0,33.6,26.7,14.2,0000.0,0009.14,0002.98,0001.71
2023-04-09 07:14:00,,0832.8,4.99,0.00,25.2,23.4,00.0,33.6,26.7,14.5,0000.0,0009.10,0003.05,0001.72
2023-04-09 07:15:00,,0832.8,5.01,0.00,25.2,23.4,00.0,33.6,26.7,14.7,0000.0,0009.13,0003.07,0001.72
2023-04-09 07:16:00,,0832.9,5.01,0.00,25.2,23.4,00.0,33.6,26.7,14.8,0000.0,0008.72,0003.06,0001.73
2023-04-09 07:17:00,,0832.9,5.00,0.00,25.2,23.4,00.0,33.6,26.7,14.7,0000.0,0009.04,0003.06,0001.74
2023-04-09 07:18:00,,0833.1,5.00,0.00,25.2,23.4,00.0,33.6,26.7,14.7,0000.0,0009.38,0003.14,0001.74
2023-04-09 07:19:00,,0832.8,5.00,0.00,25.2,23.4,00.0,33.6,26.7,14.5,0000.0,0009.44,0003.14,0001.74
2023-04-09 07:20:00,,0832.8,5.00,0.00,25.2,23.3,00.0,33.6,26.7,14.5,0000.0,0009.28,0003.14,0001.74
2023-04-09 07:21:00,,0832.8,5.00,0.00,25.2,23.3,00.0,33.5,26.7,14.4,0000.0,0008.66,0003.13,0001.74
2023-04-09 07:22:00,,0832.8,5.00,0.00,25.1,23.3,00.0,33.5,26.6,14.1,0000.0,0008.50,0003.05,0001.72
2023-04-09 07:23:00,,0832.8,5.00,0.00,25.1,23.3,00.0,33.5,26.6,13.6,0000.0,0008.13,0003.09,0001.70
2023-04-09 07:24:00,,0832.8,5.00,0.00,25.1,23.3,00.0,33.5,26.6,13.6,0000.0,0008.25,0003.12,0001.70
2023-04-09 07:25:00,,0832.7,5.01,0.00,25.1,23.3,00.0,33.5,26.6,13.8,0000.0,0008.30,0003.12,0001.70
2023-04-09 07:26:00,,0832.8,4.99,0.00,25.1,23.3,00.0,33.5,26.6,14.1,0000.0,0008.28,0003.10,0001.69
2023-04-09 07:27:00,,0832.8,5.00,0.00,25.1,23.3,00.0,33.5,26.6,13.9,0000.0,0008.19,0003.05,0001.67
2023-04-09 07:28:00,,0832.8,5.00,0.00,25.1,23.3,00.0,33.5,26.6,13.6,0000.0,0007.70,0003.01,0001.65
2023-04-09 07:29:00,,0833.0,5.00,0.00,25.0,23.3,00.0,33.5,26.6,13.6,0000.0,0007.72,0002.99,0001.64
2023-04-09 07:30:00,,0833.0,5.00,0.00,25.0,23.2,00.0,33.5,26.6,13.6,0000.0,0007.91,0002.99,0001.62
2023-04-09 07:31:00,,0832.8,5.00,0.00,25.0,23.2,00.0,33.5,26.5,13.7,0000.0,0007.93,0002.96,0001.59
2023-04-09 07:32:00,,0833.0,5.00,0.00,25.0,23.2,00.0,33.4,26.6,13.7,0000.0,0008.04,0002.98,0001.57
2023-04-09 07:33:00,,0833.1,5.00,0.00,25.0,23.2,00.0,33.4,26.5,13.7,0000.0,0007.78,0003.04,0001.57
2023-04-09 07:34:00,,0832.9,5.00,0.00,25.0,23.2,00.0,33.4,26.5,13.6,0000.0,0007.41,0003.00,0001.57
2023-04-09 07:35:00,,0833.2,5.00,0.00,25.0,23.2,00.0,33.4,26.5,13.7,0000.0,0007.28,0002.92,0001.57
2023-04-09 07:36:00,,0833.2,5.00,0.00,25.0,23.2,00.0,33.4,26.5,13.8,0000.0,0007.12,0002.87,0001.57
2023-04-09 07:37:00,,0833.3,4.99,0.00,25.0,23.1,00.0,33.4,26.4,13.9,0000.0,0007.05,0002.91,0001.57
2023-04-09 07:38:00,,0833.2,5.01,0.00,24.9,23.1,00.0,33.4,26.4,13.9,0000.0,0007.27,0002.97,0001.59
2023-04-09 07:39:00,,0833.1,5.01,0.00,24.9,23.1,00.0,33.3,26.3,14.1,0000.0,0007.58,0002.97,0001.60
2023-04-09 07:40:00,,0833.3,5.00,0.00,24.9,23.0,00.0,33.3,26.3,14.1,0000.0,0007.36,0002.94,0001.60
2023-04-09 07:41:00,,0833.2,5.00,0.00,24.9,23.0,00.0,33.3,26.4,14.1,0000.0,0006.93,0002.93,0001.63
2023-04-09 07:42:00,,0833.4,4.99,0.00,24.9,23.1,00.0,33.3,26.4,14.1,0000.0,0006.81,0002.93,0001.65
2023-04-09 07:43:00,,0833.3,5.00,0.00,24.9,23.1,00.0,33.3,26.4,14.2,0000.0,0006.44,0002.95,0001.67
2023-04-09 07:44:00,,0833.3,5.01,0.00,24.9,23.1,00.0,33.3,26.4,14.3,0000.0,0006.37,0002.90,0001.67
2023-04-09 07:45:00,,0833.4,5.01,0.00,24.9,23.1,00.0,33.3,26.4,14.4,0000.0,0007.25,0003.05,0001.69
2023-04-09 07:46:00,,0833.3,4.99,0.00,24.9,23.1,00.0,33.3,26.4,14.4,0000.0,0007.52,0003.16,0001.72
2023-04-09 07:47:00,,0833.3,5.00,0.00,24.9,23.1,00.0,33.3,26.4,14.4,0000.0,0007.82,0003.25,0001.76
2023-04-09 07:48:00,,0833.5,5.00,0.00,24.9,23.1,00.0,33.3,26.4,14.3,0000.0,0008.26,0003.25,0001.78
2023-04-09 07:49:00,,0833.4,5.00,0.00,24.9,23.1,00.0,33.2,26.5,14.3,0000.0,0008.37,0003.28,0001.79
2023-04-09 07:50:00,,0833.4,5.01,0.00,24.9,23.2,00.0,33.2,26.4,14.3,0000.0,0008.20,0003.30,0001.80
2023-04-09 07:51:00,,0833.2,5.01,0.00,24.9,23.2,00.0,33.2,26.4,14.2,0000.0,0007.94,0003.29,0001.81
2023-04-09 07:52:00,,0833.2,4.99,0.00,24.9,23.2,00.0,33.2,26.4,14.1,0000.0,0008.35,0003.33,0001.82
2023-04-09 07:53:00,,0832.9,4.99,0.00,24.9,23.1,00.0,33.2,26.4,14.1,0000.0,0008.67,0003.35,0001.83
2023-04-09 07:54:00,,0832.9,5.00,0.00,24.9,23.1,00.0,33.2,26.4,14.2,0000.0,0008.61,0003.33,0001.82
2023-04-09 07:55:00,,0833.0,4.99,0.00,24.9,23.1,00.0,33.2,26.4,14.2,0000.0,0008.53,0003.35,0001.83
2023-04-09 07:56:00,,0832.9,5.00,0.00,24.9,23.1,00.0,33.2,26.4,14.2,0000.0,0008.23,0003.28,0001.83
2023-04-09 07:57:00,,0832.9,5.00,0.00,24.9,23.1,00.0,33.2,26.3,14.2,0000.0,0008.21,0003.25,0001.82
2023-04-09 07:58:00,,0832.9,5.00,0.00,24.9,23.1,00.0,33.2,26.4,14.2,0000.0,0008.00,0003.18,0001.80
2023-04-09 07:59:00,,0833.0,5.00,0.00,24.8,23.1,00.0,33.2,26.4,14.2,0000.0,0007.51,0003.15,0001.78
